AI4ZL Weather Reports


time (UTC)temp
C
wind
direction
speed
KPH
gust
KPH
rain 1hr
cm
rain 24hr
cm
rain mn
cm
humidity
%
barometer
mb
20260506235028 15 308 0.0 1.6 0.00 1.47 0.86 69 1015.5
20260506234033 15 2 0.0 1.6 0.00 1.50 0.86 69 1015.4
20260506233021 15 0.0 0.0 0.00 1.52 0.86 68 1015.2
20260506232026 15 0.0 0.0 0.00 1.55 0.86 66 1015.3
20260506231031 15 0.0 0.0 0.00 1.60 0.86 66 1015.4
20260506230019 16 0.0 1.6 0.00 1.68 0.86 65 1015.3
20260506225023 16 90 0.0 1.6 0.00 1.88 0.86 64 1015.7
20260506224028 16 0.0 1.6 0.00 1.98 0.86 62 1015.6
20260506223017 16 221 0.0 3.2 0.00 1.98 0.86 60 1015.6
20260506222022 17 38 0.0 1.6 0.00 1.98 0.86 61 1015.9
20260506221026 16 72 0.0 1.6 0.00 2.03 0.86 62 1015.8
20260506220032 16 0.0 0.0 0.00 2.03 0.86 64 1016.2
20260506215019 15 297 0.0 1.6 0.00 2.06 0.86 64 1016.3
20260506214044 15 0.0 0.0 0.00 2.11 0.86 64 1016.3
20260506213029 15 353 0.0 1.6 0.00 2.11 0.86 63 1016.1
20260506212017 15 297 0.0 1.6 0.00 2.13 0.86 64 1016.5
20260506211022 15 0.0 0.0 0.00 2.13 0.86 64 1016.7
20260506210028 15 0.0 0.0 0.00 2.13 0.86 64 1016.8
20260506205032 15 340 1.6 3.2 0.00 2.13 0.86 65 1016.6
20260506204021 15 323 0.0 1.6 0.00 2.16 0.86 66 1016.8
20260506203026 15 322 1.6 4.8 0.00 2.16 0.86 65 1016.8
20260506202050 15 328 3.2 9.7 0.00 2.18 0.86 65 1015.9
20260506201019 15 331 1.6 3.2 0.00 2.18 0.86 63 1015.9
20260506200023 15 329 1.6 4.8 0.00 2.18 0.86 65 1016.5
20260506195028 15 332 0.0 3.2 0.00 2.18 0.86 67 1016.8
20260506194016 15 348 0.0 3.2 0.00 2.18 0.86 67 1016.9
20260506193021 15 341 1.6 6.4 0.00 2.18 0.86 66 1016.9
20260506192027 15 319 1.6 6.4 0.00 2.21 0.86 66 1016.8
20260506191034 15 0.0 4.8 0.00 2.21 0.86 66 1016.5
20260506190019 16 341 1.6 4.8 0.00 2.21 0.86 64 1016.6
20260506185024 16 254 0.0 3.2 0.00 2.21 0.86 65 1016.3
20260506184049 16 83 0.0 3.2 0.00 2.21 0.86 64 1016.6
20260506183017 16 339 4.8 14.5 0.00 2.21 0.86 65 1016.5
20260506182042 17 353 0.0 4.8 0.00 2.21 0.86 63 1016.5
20260506181027 16 284 0.0 3.2 0.00 2.21 0.86 65 1016.4
20260506180032 16 49 1.6 4.8 0.00 2.21 0.86 65 1016.6
20260506175020 16 302 1.6 6.4 0.00 2.21 0.86 65 1016.8
20260506174025 16 203 0.0 3.2 0.00 2.21 0.86 65 1016.9
20260506173029 15 331 1.6 4.8 0.00 2.21 0.86 67 1016.8
20260506172017 15 353 1.6 4.8 0.00 2.21 0.86 69 1016.6
20260506171043 15 270 0.0 1.6 0.00 2.21 0.86 69 1016.7
20260506170028 15 306 1.6 3.2 0.00 2.24 0.86 69 1016.4
20260506165032 14 334 1.6 4.8 0.00 2.26 0.86 71 1016.4
20260506164020 14 309 1.6 11.3 0.00 2.41 0.86 73 1016.8
20260506163025 15 301 1.6 4.8 0.00 2.46 0.86 72 1016.5
20260506162031 15 88 1.6 4.8 0.00 2.46 0.86 73 1016.8
20260506161018 15 277 1.6 3.2 0.00 2.46 0.86 74 1017.0
20260506160024 13 50 0.0 4.8 0.00 2.46 0.86 77 1016.6
20260506155109 13 305 0.0 3.2 0.00 2.46 0.86 78 1016.8
20260506154016 13 148 0.0 4.8 0.00 2.51 0.86 78 1016.7
20260506153022 13 308 1.6 3.2 0.00 2.54 0.86 79 1016.5
20260506152026 12 311 1.6 3.2 0.00 2.54 0.86 80 1016.8
20260506151031 12 220 1.6 4.8 0.00 2.57 0.86 80 1016.9
20260506150019 12 296 1.6 6.4 0.00 2.57 0.86 81 1016.8
20260506145024 12 11 1.6 6.4 0.00 2.57 0.86 84 1016.6
20260506144110 11 183 0.0 6.4 0.00 2.57 0.86 89 1016.7
20260506143017 11 334 1.6 6.4 0.00 2.57 0.86 92 1016.6
20260506142022 11 23 0.0 3.2 0.00 2.59 0.86 96 1016.0
20260506141028 10 298 1.6 4.8 0.00 2.59 0.86 96 1015.8
20260506140032 10 78 0.0 3.2 0.00 2.69 0.86 99 1015.4
20260506135040 10 332 1.6 4.8 0.00 3.12 0.86 99 1015.6
20260506134025 9 308 1.6 3.2 0.00 3.28 0.86 99 1015.0
20260506133030 9 286 1.6 3.2 0.00 3.43 0.86 99 1014.7
20260506132018 8 0.0 3.2 0.00 3.53 0.86 99 1015.0
20260506131023 8 0.0 0.0 0.00 3.53 0.86 99 1015.1
20260506130028 8 0.0 0.0 0.00 3.53 0.86 99 1014.6
20260506125053 8 0.0 0.0 0.00 3.53 0.86 99 1015.1
20260506124042 8 0.0 0.0 0.00 3.53 0.86 99 1014.9
20260506123026 8 0.0 0.0 0.00 3.53 0.86 99 1014.7
20260506122030 8 0.0 0.0 0.00 3.53 0.86 99 1014.8
20260506121019 8 289 0.0 1.6 0.00 3.53 0.86 99 1014.8
20260506120044 7 0.0 0.0 0.00 3.53 0.86 99 1014.1
20260506115049 7 0.0 0.0 0.00 3.53 0.86 99 1014.2
20260506114033 7 0.0 0.0 0.00 3.53 0.86 99 1014.2
20260506113042 7 0.0 0.0 0.00 3.53 0.86 99 1014.1
20260506112027 7 0.0 0.0 0.00 3.53 0.86 99 1014.0
20260506111031 7 0.0 0.0 0.00 3.53 0.86 99 1013.8
20260506110019 7 0.0 0.0 0.00 3.53 0.86 99 1013.3
20260506105024 7 0.0 0.0 0.00 3.53 0.86 99 1013.5
20260506104029 7 0.0 0.0 0.00 3.53 0.86 99 1013.7
20260506103034 7 316 0.0 1.6 0.00 3.53 0.86 99 1013.6
20260506102022 7 166 0.0 1.6 0.00 3.53 0.86 99 1013.0
20260506101030 7 0.0 0.0 0.00 3.53 0.86 99 1013.4
20260506100032 7 288 0.0 1.6 0.03 3.53 0.86 99 1013.2
20260506095020 7 0.0 0.0 0.10 3.53 0.86 99 1013.6
20260506094025 7 43 0.0 3.2 0.10 3.53 0.86 99 1012.8
20260506093030 7 0.0 0.0 0.10 3.53 0.86 99 1013.0
20260506092018 7 28 0.0 3.2 0.13 3.53 0.86 99 1012.9
20260506091023 7 0.0 0.0 0.13 3.53 0.86 99 1013.2
20260506090049 7 165 0.0 1.6 0.10 3.51 0.81 99 1013.0
20260506085033 7 3 0.0 1.6 0.03 3.43 0.76 99 1012.8
20260506084058 7 307 0.0 3.2 0.03 3.43 0.76 99 1012.5
20260506083026 7 0.0 0.0 0.03 3.43 0.76 99 1012.2
20260506082031 7 348 0.0 1.6 0.00 3.40 0.71 99 1012.0
20260506081035 7 317 1.6 4.8 0.00 3.40 0.71 99 1011.9
20260506073022 8 360 0.0 1.6 0.00 3.40 0.71 99 1011.7
20260506072026 8 325 0.0 3.2 0.20 3.40 0.71 99 1012.1
20260506071031 8 350 0.0 1.6 0.61 3.40 0.71 99 1012.5
20260506062023 9 306 0.0 4.8 0.48 3.17 0.51 99 1011.9
20260506061027 9 266 1.6 4.8 0.08 2.77 0.10 99 1011.7
20260506051023 9 0.0 3.2 0.05 2.69 0.03 99 1010.5
20260506045033 10 321 0.0 4.8 0.03 2.67 2.67 99 1010.5
20260506044021 10 344 0.0 3.2 0.03 2.67 2.67 99 1011.0
20260506043026 10 4 0.0 3.2 0.05 2.67 2.67 99 1011.0
20260506042031 10 47 0.0 4.8 0.15 2.67 2.67 99 1011.0
20260506041018 10 349 0.0 6.4 0.18 2.64 2.64 99 1010.9
20260506040024 10 335 1.6 6.4 0.20 2.64 2.64 99 1010.9
20260506035029 10 341 0.0 3.2 0.23 2.64 2.64 99 1010.7
20260506034038 10 9 0.0 3.2 0.23 2.64 2.64 99 1010.5
20260506033022 10 351 0.0 1.6 0.23 2.62 2.62 99 1010.3
20260506032047 10 288 0.0 6.4 0.15 2.51 2.51 99 1010.2
20260506031032 10 0.0 1.6 0.13 2.46 2.46 99 1010.1
20260506030020 10 307 0.0 6.4 0.10 2.44 2.44 99 1009.7
20260506025024 11 342 1.6 9.7 0.08 2.41 2.41 99 1009.9
20260506024029 11 337 1.6 6.4 0.13 2.41 2.41 99 1009.5
20260506023018 11 32 0.0 4.8 0.13 2.39 2.39 99 1009.3
20260506022023 11 334 1.6 11.3 0.10 2.36 2.36 99 1009.2
20260506021027 11 301 3.2 11.3 0.13 2.34 2.34 99 1009.1
20260506020053 12 354 1.6 6.4 0.13 2.34 2.34 99 1008.6
20260506015021 12 338 0.0 3.2 0.13 2.34 2.34 99 1008.2
20260506014026 12 0.0 0.0 0.10 2.29 2.29 99 1008.3
20260506013030 12 0.0 0.0 0.08 2.26 2.26 99 1008.4
20260506012019 12 0.0 0.0 0.10 2.26 2.26 99 1008.3
20260506011024 12 0.0 0.0 0.13 2.21 2.21 99 1008.0
20260506010029 12 267 0.0 1.6 0.13 2.21 2.21 99 1008.3
20260506005037 12 0.0 0.0 0.15 2.21 2.21 99 1008.2
20260506004042 12 0.0 0.0 0.15 2.18 2.18 99 1008.1
20260506003026 12 65 0.0 1.6 0.18 2.18 2.18 99 1008.1
20260506002031 13 343 0.0 1.6 0.18 2.16 2.16 99 1008.5
20260506001019 13 0.0 0.0 0.15 2.08 2.08 99 1008.4
20260506000044 13 0.0 0.0 0.25 2.08 2.08 99 1008.2
20260505235049 13 0.0 1.6 0.43 2.06 2.06 99 1008.0